When you browse on this site, cookies collect data to enhance your experience and personalize the content and advertising you see.
Visit our Privacy Policy to learn more. By continuing to use the site, you agree to this use of cookies and data.
  • In Belgium
  • List of Countries
  • For 7 days
  • Water Temperature
  • Weather Map
  • Weather Widgets
  • user-avatar
    Login

    Hourly Weather Potapovka

    Today, 17 February, Monday

    Time Temperature Precipitation Wind Pressure Humidity
    00:00 -2°C° 0 mm 7 mps 751 mmHg 91%
    01:00 -3°C° 0 mm 7 mps 751 mmHg 89%
    02:00 -4°C° 0 mm 8 mps 751 mmHg 87%
    03:00 -4°C° 0 mm 8 mps 750 mmHg 84%
    04:00 -4°C° 0 mm 8 mps 750 mmHg 82%
    05:00 -4°C° 0 mm 9 mps 749 mmHg 79%
    06:00 -4°C° 0 mm 9 mps 749 mmHg 78%
    07:00 -4°C° 0 mm 9 mps 749 mmHg 78%
    08:00 -4°C° 0 mm 9 mps 749 mmHg 77%
    09:00 -4°C° 0 mm 9 mps 748 mmHg 77%
    10:00 -3°C° 0 mm 10 mps 748 mmHg 77%
    11:00 -3°C° 0 mm 10 mps 747 mmHg 77%
    12:00 -2°C° 0 mm 10 mps 747 mmHg 76%
    13:00 -2°C° 0 mm 10 mps 747 mmHg 75%
    14:00 -2°C° 0 mm 10 mps 746 mmHg 75%
    15:00 -1°C° 0 mm 9 mps 746 mmHg 75%
    16:00 -1°C° 0 mm 9 mps 746 mmHg 76%
    17:00 -3°C° 0 mm 9 mps 746 mmHg 76%
    18:00 -1°C° 0 mm 9 mps 746 mmHg 77%
    19:00 -1°C° 0 mm 9 mps 746 mmHg 77%
    20:00 -1°C° 0 mm 8 mps 746 mmHg 78%
    21:00 -1°C° 0 mm 8 mps 746 mmHg 79%
    22:00 -1°C° 0 mm 8 mps 746 mmHg 80%
    23:00 -1°C° 0 mm 7 mps 746 mmHg 82%

    Tomorrow, 18 February, Tuesday

    Time Temperature Precipitation Wind Pressure Humidity
    00:00 -1°C° 0.1 mm 7 mps 746 mmHg 84%
    01:00 -1°C° 0.1 mm 6 mps 747 mmHg 87%
    02:00 -2°C° 0.1 mm 6 mps 747 mmHg 89%
    03:00 -1°C° 0.5 mm 5 mps 746 mmHg 92%
    04:00 -1°C° 0.5 mm 5 mps 746 mmHg 94%
    05:00 -1°C° 0.5 mm 5 mps 746 mmHg 96%
    06:00 -1°C° 1.2 mm 5 mps 746 mmHg 96%
    07:00 -1°C° 1.2 mm 5 mps 746 mmHg 96%
    08:00 -1°C° 1.2 mm 5 mps 746 mmHg 96%
    09:00 -1°C° 0.5 mm 5 mps 745 mmHg 96%
    10:00 -1°C° 0.5 mm 5 mps 745 mmHg 97%
    11:00 -1°C° 0.5 mm 5 mps 744 mmHg 98%
    12:00 -1°C° 0 mm 5 mps 744 mmHg 97%
    13:00 -1°C° 0 mm 5 mps 744 mmHg 97%
    14:00 -1°C° 0 mm 5 mps 743 mmHg 97%
    15:00 -1°C° 0 mm 5 mps 743 mmHg 95%
    16:00 -1°C° 0 mm 5 mps 742 mmHg 94%
    17:00 -1°C° 0 mm 5 mps 742 mmHg 92%
    18:00 -1°C° 0.1 mm 5 mps 742 mmHg 93%
    19:00 -1°C° 0.1 mm 5 mps 742 mmHg 94%
    20:00 -1°C° 0.1 mm 5 mps 741 mmHg 96%
    21:00 -1°C° 0 mm 5 mps 741 mmHg 97%
    22:00 -1°C° 0 mm 5 mps 741 mmHg 98%
    23:00 -1°C° 0 mm 5 mps 741 mmHg 99%

    Day after tomorrow, 19 February, Wednesday

    Time Temperature Precipitation Wind Pressure Humidity
    00:00 -1°C° 0 mm 5 mps 741 mmHg 98%
    01:00 -1°C° 0 mm 5 mps 741 mmHg 98%
    02:00 -1°C° 0 mm 5 mps 742 mmHg 97%
    03:00 -1°C° 0 mm 4 mps 742 mmHg 96%
    04:00 -1°C° 0 mm 4 mps 742 mmHg 95%
    05:00 -2°C° 0 mm 4 mps 742 mmHg 94%
    06:00 -2°C° 0 mm 4 mps 742 mmHg 95%
    07:00 -1°C° 0 mm 4 mps 742 mmHg 95%
    08:00 -1°C° 0 mm 4 mps 743 mmHg 96%
    09:00 -1°C° 0 mm 4 mps 743 mmHg 97%
    10:00 -1°C° 0 mm 4 mps 743 mmHg 98%
    11:00 -1°C° 0 mm 4 mps 743 mmHg 99%
    12:00 -1°C° 0 mm 4 mps 743 mmHg 99%
    13:00 -1°C° 0 mm 4 mps 743 mmHg 99%
    14:00 -1°C° 0 mm 4 mps 744 mmHg 99%
    15:00 -1°C° 0 mm 4 mps 744 mmHg 97%
    16:00 -1°C° 0 mm 3 mps 744 mmHg 95%
    17:00 -1°C° 0 mm 3 mps 744 mmHg 93%
    18:00 -1°C° 0 mm 3 mps 744 mmHg 92%
    19:00 -2°C° 0 mm 3 mps 744 mmHg 90%
    20:00 -2°C° 0 mm 3 mps 745 mmHg 89%
    21:00 -2°C° 0 mm 2 mps 745 mmHg 89%
    22:00 -3°C° 0 mm 2 mps 745 mmHg 89%
    23:00 -3°C° 0 mm 2 mps 745 mmHg 89%

    20 February, Thursday

    Time Temperature Precipitation Wind Pressure Humidity
    00:00 -3°C° 0 mm 2 mps 745 mmHg 88%
    01:00 -3°C° 0 mm 2 mps 745 mmHg 88%
    02:00 -3°C° 0 mm 2 mps 745 mmHg 87%
    03:00 -3°C° 0 mm 2 mps 745 mmHg 88%
    04:00 -3°C° 0 mm 2 mps 745 mmHg 89%
    05:00 -4°C° 0 mm 3 mps 745 mmHg 90%
    06:00 -4°C° 0 mm 3 mps 745 mmHg 92%
    07:00 -4°C° 0 mm 3 mps 745 mmHg 93%
    08:00 -2°C° 0 mm 3 mps 745 mmHg 95%
    09:00 -2°C° 0 mm 3 mps 745 mmHg 95%
    10:00 -1°C° 0 mm 3 mps 745 mmHg 96%
    11:00 -1°C° 0 mm 3 mps 746 mmHg 97%
    12:00 -1°C° 0 mm 3 mps 745 mmHg 97%
    13:00 -1°C° 0 mm 3 mps 745 mmHg 97%
    14:00 -1°C° 0 mm 3 mps 745 mmHg 97%
    15:00 -1°C° 0 mm 3 mps 745 mmHg 97%
    16:00 -1°C° 0 mm 3 mps 745 mmHg 96%
    17:00 -2°C° 0 mm 2 mps 745 mmHg 96%
    18:00 -2°C° 0 mm 2 mps 746 mmHg 96%
    19:00 -2°C° 0 mm 2 mps 746 mmHg 95%
    20:00 -2°C° 0 mm 2 mps 746 mmHg 95%
    21:00 -3°C° 0 mm 2 mps 746 mmHg 95%
    22:00 -3°C° 0 mm 2 mps 746 mmHg 95%
    23:00 -3°C° 0 mm 2 mps 746 mmHg 95%

    21 February, Friday

    Time Temperature Precipitation Wind Pressure Humidity
    00:00 -3°C° 0 mm 2 mps 746 mmHg 96%
    01:00 -3°C° 0 mm 2 mps 746 mmHg 96%
    02:00 -3°C° 0 mm 2 mps 746 mmHg 96%
    03:00 -3°C° 0 mm 2 mps 746 mmHg 96%
    04:00 -3°C° 0 mm 2 mps 746 mmHg 96%
    05:00 -3°C° 0 mm 2 mps 747 mmHg 96%
    06:00 -3°C° 0 mm 2 mps 747 mmHg 97%
    07:00 -1°C° 0 mm 1 mps 747 mmHg 97%
    08:00 0°C° 0 mm 1 mps 747 mmHg 97%
    15:00 -1°C° 0 mm 2 mps 748 mmHg 98%
    16:00 +1°C° 0 mm 1 mps 748 mmHg 97%
    17:00 +1°C° 0 mm 1 mps 748 mmHg 97%
    18:00 0°C° 0 mm 1 mps 748 mmHg 97%
    19:00 0°C° 0 mm 1 mps 748 mmHg 97%
    20:00 0°C° 0 mm 1 mps 748 mmHg 97%
    21:00 0°C° 0.1 mm 1 mps 748 mmHg 97%
    22:00 -2°C° 0.1 mm 2 mps 748 mmHg 97%
    23:00 -2°C° 0.1 mm 2 mps 748 mmHg 98%

    22 February, Saturday

    Time Temperature Precipitation Wind Pressure Humidity
    00:00 -2°C° 0.2 mm 2 mps 748 mmHg 98%
    01:00 -2°C° 0.2 mm 2 mps 748 mmHg 98%
    02:00 -2°C° 0.2 mm 2 mps 748 mmHg 98%
    03:00 -3°C° 0.1 mm 2 mps 748 mmHg 97%
    04:00 -3°C° 0.1 mm 2 mps 747 mmHg 97%
    05:00 -3°C° 0.1 mm 2 mps 747 mmHg 97%
    06:00 -3°C° 0 mm 2 mps 747 mmHg 97%
    07:00 -3°C° 0 mm 2 mps 747 mmHg 97%
    08:00 -3°C° 0 mm 2 mps 747 mmHg 96%
    09:00 -3°C° 0 mm 2 mps 747 mmHg 96%
    10:00 -2°C° 0 mm 2 mps 747 mmHg 96%
    11:00 -2°C° 0 mm 2 mps 747 mmHg 95%
    12:00 -1°C° 0 mm 2 mps 746 mmHg 95%
    13:00 -1°C° 0 mm 3 mps 746 mmHg 94%
    14:00 -1°C° 0 mm 3 mps 745 mmHg 94%
    15:00 -2°C° 0 mm 3 mps 745 mmHg 94%
    16:00 -3°C° 0 mm 4 mps 744 mmHg 94%
    17:00 -4°C° 0 mm 4 mps 744 mmHg 94%
    18:00 -3°C° 0 mm 4 mps 743 mmHg 94%
    19:00 -4°C° 0 mm 5 mps 743 mmHg 94%
    20:00 -4°C° 0 mm 5 mps 742 mmHg 93%
    21:00 -4°C° 0.1 mm 5 mps 742 mmHg 94%
    22:00 -4°C° 0.1 mm 5 mps 741 mmHg 94%
    23:00 -4°C° 0.1 mm 5 mps 740 mmHg 95%
    Show more